Miscellaneous Local Product
Issued by NWS North Platte, NE

Home | Current Version | Previous Version | Graphics & Text | Print | Product List | Glossary On
Versions: 1 2 3 4 5 6 7 8 9 10 11 12 13 14 15 16 17 18 19 20 21 22 23 24 25 26 27 28 29 30 31 32 33 34 35 36 37 38 39 40 41 42 43 44 45 46 47 48 49 50
000
AXUS43 KLBF 210110
MISLBF


WESTERN AND NORTH CENTRAL NEBRASKA HOURLY WEATHER ROUNDUP
NATIONAL WEATHER SERVICE NORTH PLATTE NE
700 PM CST FRI JAN 20 2017

NOTE: "FAIR" INDICATES FEW OR NO CLOUDS BELOW 12,000 FEET WITH NO
SIGNIFICANT WEATHER AND/OR OBSTRUCTIONS TO VISIBILITY.

NOTE: STATIONS NOT REPORTING VARIABLES SUCH AS SKY/WEATHER OR
PRESSURE ARE PROVIDED BY RAWS AND APRS NETWORKS AND ARE NOT UNDER
NATIONAL WEATHER SERVICE QUALITY CONTROL.

...OBSERVATIONS IN AND NEAR THE EASTERN PANHANDLE OF NEBRASKA...

CITY           SKY/WX    TMP DP  RH WIND       PRES   REMARKS
PINE RIDGE     CLOUDY    36  33  89 SW8       29.36S WCI  30
CHADRON        CLOUDY    36  32  85 W12       29.38R WCI  28
ALLIANCE       CLOUDY    35  32  88 W8        29.38R WCI  29
SIDNEY         CLOUDY    35  32  88 NW13      29.41R WCI  26
CRESCENT LAKE    N/A     35  31  84 W5          N/A  WCI  31
$$

...OBSERVATIONS IN NORTHERN NEBRASKA AND FAR SOUTHERN SOUTH DAKOTA...

CITY           SKY/WX    TMP DP  RH WIND       PRES   REMARKS
WINNER         FAIR      34  28  79 SW5       29.34S WCI  30
VALENTINE      PTCLDY    36  28  73 W6        29.35R WCI  31
THEDFORD       CLOUDY    35  32  88 CALM      29.37R
AINSWORTH      CLOUDY    35  31  86 W5        29.35R WCI  31
O`NEILL        CLOUDY    41  40  97 S8        29.37S FOG
ORD            FOG       38  37  97 CALM      29.37R VSB 1/4
BROKEN BOW     CLOUDY    34  33  96 CALM      29.36R FOG
VALENTINE NWR    N/A     35  29  78 CALM        N/A
BUTTE            N/A     37  34  89 S6          N/A  WCI  32
HALSEY           N/A     36  32  86 SW3         N/A
SARGENT          N/A     36  26  67 CALM        N/A
CHAMBERS         N/A     39  38  95 CALM        N/A
EWING            N/A     40  39  96 CALM        N/A
$$

...OBSERVATIONS IN SOUTHWEST NEBRASKA AND FAR NORTHEAST COLORADO...

CITY           SKY/WX    TMP DP  RH WIND       PRES   REMARKS
WRAY           MOCLDY    36  32  87 W6        29.41R WCI  31
HOLYOKE        FAIR      39  32  75 NW12G17   29.41R WCI  32
IMPERIAL       CLOUDY    39  33  79 W5        29.39R
OGALLALA       CLOUDY    38  32  80 NW3       29.37S
NORTH PLATTE   CLOUDY    36  31  82 NW3       29.37R
MCCOOK         CLOUDY    36  33  89 SW6       29.39R WCI  31
LEXINGTON      CLOUDY    38  35  92 S6        29.39R WCI  33
STAPLETON        N/A     33  31  94 CALM        N/A
GOTHENBURG       N/A     39  33  80 W3          N/A
CALLAWAY         N/A     36  34  91 W6          N/A  WCI  31
$$

...OBSERVATIONS IN CENTRAL LINCOLN COUNTY AREA...

CITY           SKY/WX    TMP DP  RH WIND       PRES   REMARKS
N.P. AIRPORT   CLOUDY    36  31  82 NW3       29.37R
N.P. DOWNTOWN    N/A     37  33  86 CALM        N/A
N.P. SOUTHEAST   N/A     38  33  83 CALM        N/A
N.P. HILLCREST   N/A     38  34  87 CALM        N/A
$$

...SOME OBSERVATIONS FROM AROUND THE REGION...

CITY           SKY/WX    TMP DP  RH WIND       PRES   REMARKS
LARAMIE        CLOUDY    21  12  68 W8        29.41S WCI  11
CHEYENNE       CLOUDY    31  17  56 NW10      29.41R WCI  22
DENVER         CLOUDY    32  26  78 SE10      29.41R WCI  24
AKRON          CLOUDY    35  27  72 N10       29.42R WCI  27
SCOTTSBLUFF    LGT RAIN  36  33  89 W7        29.41R WCI  30
RAPID CITY     PTCLDY    36  27  69 NW8       29.33R WCI  30
BISMARCK       CLOUDY    31  30  96 W3        29.35F FOG
PIERRE         CLOUDY    19  17  92 W7        29.33R FOG     WCI  10
SIOUX FALLS    DRZL/FOG  39  39 100 SE12      29.45R VSB 1   WCI  32
OMAHA          LGT RAIN  42  38  85 SE6       29.46S FOG
GRAND ISLAND   FOG       39  39 100 S6        29.41R VSB 1   WCI  35
KANSAS CITY    CLOUDY    49  46  90 SE7       29.47R
WICHITA        PTCLDY    41  39  93 S8        29.44S
OKLAHOMA CITY  PTCLDY    60  35  39 SW15      29.51R
DALLAS         PTCLDY    62  38  40 S10       29.60R
AMARILLO       CLEAR     49  24  37 W15       29.55R
DODGE CITY     PTCLDY    39  34  82 W10       29.44R WCI  32
HAYS           CLOUDY    44  36  73 NW5       29.41F
GOODLAND       CLEAR     34  33  96 W10       29.41R WCI  26
$$




USA.gov is the U.S. government's official web portal to all federal, state and local government web resources and services.